Regional Weather Roundup
Issued by NWS Burlington, VT

Home | Current Version | Previous Version | Text Only | Print | Product List | Glossary On
Versions: 1 2 3 4 5 6 7 8 9 10 11 12 13 14 15 16 17 18 19 20 21 22 23 24 25 26 27 28 29 30 31 32 33 34 35 36 37 38 39 40 41 42 43 44 45 46 47 48 49 50
000
ASUS41 KBTV 300710
RWRBTV
VERMONT REGIONAL WEATHER ROUNDUP
NATIONAL WEATHER SERVICE BURLINGTON VT
300 AM EDT FRI SEP 30 2016

NOTE: "FAIR" INDICATES FEW OR NO CLOUDS BELOW 12,000 FEET WITH NO
SIGNIFICANT WEATHER AND/OR OBSTRUCTIONS TO VISIBILITY.

* THESE REPORTS ARE NOT UNDER NWS QUALITY CONTROL AND/OR DO NOT
  REPORT WEATHER SUCH AS PRECIPITATION AND FOG.

VTZ001>019-300800-
_____VERMONT_____


CITY           SKY/WX    TMP DP  RH WIND       PRES   REMARKS
BURLINGTON     CLOUDY    56  43  61 SE7       30.47F
MONTPELIER     PTCLDY    43  40  89 S3        30.54F
MORRISVILLE    MOCLDY    44  42  93 CALM      30.51F
ST. JOHNSBURY*   N/A     44  42  93 MISG      30.50F
LYNDONVILLE*   FAIR      44  40  89 CALM      30.52F
MIDDLEBURY*    FAIR      56  37  48 S9G17     30.47S
RUTLAND*       CLOUDY    52  40  63 VRB6      30.48F
SPRINGFIELD    MOCLDY    42  40  92 CALM      30.52F
HIGHGATE*      FAIR      49  47  90 CALM      30.47F
NEWPORT*       FAIR      41  41  99 CALM      30.52S
BENNINGTON     CLOUDY    55  39  54 E7        30.44F
SUTTON*          N/A     43 N/A N/A MISG        N/A

_____LAKE CHAMPLAIN_____


CITY           SKY/WX    TMP DP  RH WIND       PRES   REMARKS
BURTON ISLAND*   N/A     57  48  72 E3          N/A
COLCHESTER RF*   N/A     59  52  77 NW6         N/A
DIAMOND ISL*     N/A     57  45  62 SE7         N/A

$$

NYZ007-026>031-035-052-083-087-300800-
_____NORTHERN NEW YORK_____


CITY           SKY/WX    TMP DP  RH WIND       PRES   REMARKS
PLATTSBURGH    PTCLDY    53  46  77 CALM      30.46F
SARANAC LAKE   PTCLDY    51  46  83 CALM      30.43F
MASSENA        CLOUDY    54  46  74 NE5       30.47S
OGDENSBURG*    CLEAR     55  46  71 E6        30.44S
WATERTOWN      CLOUDY    52  48  86 NE6       30.40F
FT DRUM        PTCLDY    52  48  87 NE7       30.40F
ALBANY         CLOUDY    56  42  59 NE8       30.44F
GLENS FALLS    CLOUDY    56  41  57 NE5       30.45F

$$
NHZ002-005-011-300800-
_____NEW HAMPSHIRE_____


CITY           SKY/WX    TMP DP  RH WIND       PRES   REMARKS
LEBANON        CLOUDY    44  43  96 CALM      30.51F
KEENE          MOCLDY    45  44  97 CALM      30.50F
MT WASHINGTON  MOCLDY    46  -8  10 E10         N/A
PLYMOUTH       FAIR      40  39  98 CALM      30.53F
WHITEFIELD     PTCLDY    41  37  86 CALM      30.51F

$$

_____REGIONAL QUEBEC LOCATIONS_____


CITY           SKY/WX    TMP DP  RH WIND       PRES   REMARKS
MONTREAL       MOCLDY    50  45  81 N8        30.48S
QUEBEC CITY    MOCLDY    39  37  93 NE3       30.56F
SHERBROOKE     CLEAR     39  39 100 E6        30.51F

_____REGIONAL ONTARIO LOCATIONS_____


CITY           SKY/WX    TMP DP  RH WIND       PRES   REMARKS
OTTAWA         MOCLDY    54  41  62 NE9       30.46F

______KEY______
VSB  - VISIBILITY IN MILES
WCI  - WIND CHILL INDEX
HX   - HEAT INDEX
$$
NNNN




USA.gov is the U.S. government's official web portal to all federal, state and local government web resources and services.